Regional Weather Roundup
Issued by NWS Midland/Odessa, TX

Skip options and go directly to product.
Home | Oldest Version | Previous Version | Current Version | All | Graphics & Text | Save Text | Print | Product List | Glossary On

Skip product version selection by date and time.   
946
ASUS44 KMAF 261610
RWRMAF
MIDLAND AREA WEATHER ROUNDUP
NATIONAL WEATHER SERVICE MIDLAND TX
1000 AM CST WED NOV 26 2014

...IN SOUTHWEST TEXAS AND SOUTHEAST NEW MEXICO...

CITY           SKY/WX    TMP DP  RH WIND       PRES   REMARKS
ALPINE         SUNNY     54  10  17 W14G20    30.38R
ANDREWS        FAIR      52  18  26 N13       30.28R
ARTESIA        NOT AVBL
BIG SPRING     SUNNY     54  22  29 NW7       30.29R
CARLSBAD       SUNNY     50  16  25 CALM      30.26R
DRYDEN           N/A     61  10  13 W17G28    30.26R
FORT STOCKTON  SUNNY     59  15  18 W8        30.28R
GUAD PASS      SUNNY     42   8  24 SW23      30.34R WCI  33
HOBBS          SUNNY     57  19  23 NW23G30   30.26R
MARFA          SUNNY     54  12  19 W15       30.36R
MIDLAND AIRPK  SUNNY     57  19  23 NW14      30.28R
MIDLAND INTL   SUNNY     58  18  21 NW15      30.26R
ODESSA         SUNNY     59  15  18 NW16      30.27R
PECOS          SUNNY     59  15  17 W15       30.27R
PRESIDIO       FAIR      49  15  25 CALM      30.37R
SEMINOLE       SUNNY     50  20  29 N13G18    30.28R
SNYDER         SUNNY     48  28  46 N10       30.26R
WINK           SUNNY     54  13  19 NW5       30.27R
$$
...OTHER STATIONS IN TEXAS...

CITY           SKY/WX    TMP DP  RH WIND       PRES   REMARKS
ABILENE        SUNNY     52  24  33 NW15      30.22R
AMARILLO       MOSUNNY   39  28  64 N14       30.29R WCI  31
AUSTIN         SUNNY     63  34  33 SW16G25   30.21S
BROWNSVILLE    SUNNY     64  45  49 SW8       30.34R
CORPUS CHRISTI SUNNY     59  43  55 S15       30.31R
DALLAS FTW     MOSUNNY   53  26  35 N14       30.13R
DEL RIO        SUNNY     54  38  54 CALM      30.27R
EL PASO        MOSUNNY   44  12  27 CALM      30.37R
HOUSTON INT    SUNNY     62  35  36 SW9G18    30.25R
LUBBOCK        MOSUNNY   46  29  51 N16G24    30.27R WCI  39
SAN ANGELO     SUNNY     56  20  24 W9        30.23R
SAN ANTONIO    SUNNY     61  33  35 SW13      30.26R
WACO           SUNNY     59  30  33 W12       30.17R
WICHITA FALLS  NOT AVBL
$$
...OTHER LOCATIONS IN NEW MEXICO...

CITY           SKY/WX    TMP DP  RH WIND       PRES   REMARKS
ALAMAGORDO     MOSUNNY   36   9  32 CALM      30.36R
ALBUQUERQUE    MOSUNNY   43  11  27 S5        30.39R
CANNON AFB     SUNNY     40  28  61 NE13      30.30R WCI  32
CLOVIS         SUNNY     39  27  60 NE14      30.30R WCI  31
HOLLOMAN AFB   MOSUNNY   41   9  26 CALM      30.36R
ROSWELL        SUNNY     49  17  28 SE5       30.27R
RUIDOSO        SUNNY     46  19  34 NW15G22   30.36S
SANTA FE       SUNNY     39  14  36 SW9       30.34R WCI  33
TRUTH OR CONSE SUNNY     42  13  30 CALM      30.37R
TUCUMCARI      PTSUNNY   39  27  62 E8        30.30R WCI  33
$$

USA.gov is the U.S. government's official web portal to all federal, state and local government web resources and services.